Location: Newark
(11.0000°N, 10.0000°W)
Time: 10:29:11
(UTC+00:00)

ISS - Visible Passes

Search period start: 19 March 2019 00:00
Search period end: 29 March 2019 00:00
Orbit: 406 x 411 km, 51.6° (Epoch: 19 March)

Date Brightness Start Highest point End Pass type
(mag) Time Alt. Az. Time Alt. Az. Time Alt. Az.
19 Mar -3.8 06:07:05 10° NW 06:10:21 85° NE 06:13:38 10° SE visible
19 Mar -2.7 19:22:51 10° SW 19:26:02 47° NW 19:29:12 10° NNE visible
20 Mar -2.0 05:18:05 22° NNE 05:19:22 30° NE 05:22:17 10° ESE visible
21 Mar -2.4 06:03:25 17° W 06:04:43 21° SW 06:07:16 10° S visible
21 Mar -0.7 19:19:02 10° WNW 19:20:31 13° NW 19:22:01 10° NNW visible
22 Mar -1.6 05:15:55 19° SSE 05:15:55 19° SSE 05:16:58 10° SSE visible
